Regional Weather Roundup
Issued by NWS Northern Indiana

Home | Current Version | Previous Version | Text Only | Print | Product List | Glossary On
Versions: 1 2 3 4 5 6 7 8 9 10 11 12 13 14 15 16 17 18 19 20 21 22 23 24 25 26 27 28 29 30 31 32 33 34 35 36 37 38 39 40 41 42 43 44 45 46 47 48 49 50
000
ASUS43 KIWX 080100
RWRIWX

KIWX WEATHER ROUNDUP
NATIONAL WEATHER SERVICE NORTHERN INDIANA
800 PM EST SUN FEB 07 2016

NOTE: "FAIR" INDICATES FEW OR NO CLOUDS BELOW 12,000 FEET WITH NO
SIGNIFICANT WEATHER AND/OR OBSTRUCTIONS TO VISIBILITY.

* THESE STATIONS ARE NOT UNDER NWS QUALITY CONTROL. THEY ALSO MAY NOT
  REPORT WEATHER SUCH AS PRECIPITATION OR FOG.

INZ001>027-080200-
NORTHERN INDIANA

CITY           SKY/WX    TMP DP  RH WIND       PRES   REMARKS
GARY*          PTCLDY    41  30  65 SW8       29.77S
SOUTH BEND     PTCLDY    38  31  76 SW9       29.76S
GOSHEN         CLEAR     37  31  78 SW8       29.76S
ANGOLA*        MOCLDY    43  34  70 W9        29.75F
FORT WAYNE     CLOUDY    42  33  70 W9        29.79S
PERU/GRISSOM   PTCLDY    38  33  82 W10       29.78S

$$
INZ028>050-080200-
CENTRAL INDIANA

CITY           SKY/WX    TMP DP  RH WIND       PRES   REMARKS
LAFAYETTE      CLEAR     40  32  73 W8        29.81S
KOKOMO*          N/A     39  30  70 W8        29.80S
MUNCIE*        CLOUDY    49  29  46 SW7       29.79F
INDIANAPOLIS   CLOUDY    46  28  49 SW9       29.80F

$$
MIZ043>046-050>051-056>058-064>065-071>073-077>080-080200-
SOUTHWEST LOWER MICHIGAN

CITY           SKY/WX    TMP DP  RH WIND       PRES   REMARKS
BATTLE CREEK   MOCLDY    40  31  70 SW9       29.73F
BENTON HARBOR  PTCLDY    41  32  70 SW14G23   29.74S
COLDWATER*     CLOUDY    41  32  70 SW8       29.75S
HILLSDALE*     CLOUDY    40  29  62 SW5       29.74F
HOLLAND        CLOUDY    40  33  76 SW16      29.72F
GRAND RAPIDS   CLOUDY    40  32  73 SW10      29.72S
KALAMAZOO      CLOUDY    41  31  67 SW9       29.74S
STURGIS*       CLOUDY    37  32  81 SW6       29.74F
THREE RIVERS*  FAIR      41  33  71 SW7       29.74F

$$
OHZ001>008-015>018-024>025-080200-
NORTHWEST OHIO

CITY           SKY/WX    TMP DP  RH WIND       PRES   REMARKS
DEFIANCE       CLOUDY    45  32  60 S7        29.78S
FINDLAY        CLOUDY    44  29  55 S12       29.79F
TOLEDO EXPRESS CLOUDY    46  29  51 S12G20    29.77F
TOLEDO METCALF CLOUDY    44  30  57 S10       29.79F
LIMA           CLOUDY    44  28  53 S9        29.79F

$$
AND FOR LAKE MICHIGAN COASTAL AND OPEN LAKE BUOY OBSERVATIONS

STATION/POSITION TEMP    WIND        PRES    VSBY  WAVE
                 AIR SEA DIR/SP/G                  HT/PER
                 (F)     (DEG/KT/KT) (MB)    (MI)  (FT/S)
CALUMET HARBOR    42     220/  8/ 13 1007.2R
MICHIGAN CITY     41     210/ 19/ 21   N/A
BURNS HARBOR      42     220/ 12/ 15 1008.5S
SAINT JOSEPH      37     190/  9/ 12 1008.5R

$$
&&



USA.gov is the U.S. government's official web portal to all federal, state and local government web resources and services.